Flag Weather past 2 weeks in Hammerfest, Norway

Now
43 °F

Passing clouds.


Feels Like: 37 °F
Forecast: 36 / 40 °F
Wind: 9 mph from Southwest

Location: Hammerfest

Current Time: Nov 26, 2014 at 9:29:38 PM

Latest Report: Nov 26, 2014 at 8:50 PM


Visibility: N/A

Pressure: 30.01 "Hg

Humidity: 87%

Dew point: 39 °F

Location of HammerfestLocation

Historic Weather in Hammerfest — Graph

°F

Hammerfest temperature yesterday

Maximum temperature yesterday: 37 °F (at 4:50 PM)
Minimum temperature yesterday: 28 °F (at 1:50 AM)
Average temperature yesterday: 34 °F

Past Weeks' High & Low Weather Summary

 TemperatureHumidityPressure
High45 °F (Nov 19, 5:50 AM)100% (Nov 13, 8:50 PM)30.51 "Hg (Nov 13, 8:50 PM)
Low21 °F (Nov 14, 8:50 PM)45% (Nov 13, 4:00 PM)29.74 "Hg (Nov 25, 3:50 PM)
Average35 °F82%30.14 "Hg
* Reported Nov 11 7:50 PM — Nov 26 7:50 PM, Hammerfest, Weather by CustomWeather, © 2014

Note: Actual official high and low records may vary slightly from our data, if they occured in-between our weather recording intervals... More about our weather records

Advertising

Hammerfest weather history for previous 24 hours

 ConditionsComfort  
Time TempWeatherWind HumidityBarometerVisibility
7:50 PM
Nov 26
41 °FPartly cloudy.13 mph100%30.01 "HgN/A
6:50 PM41 °FLight rain. Broken clouds.17 mph100%29.98 "Hg3 mi
5:50 PM39 °FLight rain. Broken clouds.15 mph100%29.95 "HgN/A
4:50 PM39 °FDrizzle. Broken clouds.16 mph100%29.95 "Hg6 mi
3:50 PM39 °FDrizzle. More clouds than sun.10 mph100%29.95 "Hg6 mi
2:50 PM39 °FLight rain. Cloudy.15 mph93%29.92 "Hg5 mi
1:50 PM41 °FLight rain. Cloudy.14 mph87%29.92 "HgN/A
12:50 PM39 °FSprinkles. Broken clouds.10 mph87%29.92 "HgN/A
11:50 AM39 °FSprinkles. Broken clouds.15 mph87%29.89 "HgN/A
10:50 AM39 °FSprinkles. Broken clouds.14 mph81%29.89 "HgN/A
9:50 AM39 °FScattered showers. Partly sunny.10 mph70%29.86 "HgN/A
8:50 AM39 °FPartly sunny.8 mph70%29.83 "HgN/A
7:50 AM37 °FScattered clouds.8 mph75%29.83 "HgN/A
6:50 AM37 °FBroken clouds.8 mph81%29.80 "HgN/A
5:50 AM37 °FPassing clouds.6 mph75%29.80 "HgN/A
4:50 AM37 °FPassing clouds.8 mph70%29.80 "HgN/A
3:50 AM39 °FPassing clouds.5 mph65%29.80 "HgN/A
2:50 AM37 °FPassing clouds.5 mph70%29.80 "HgN/A
1:50 AM36 °FPassing clouds.7 mph75%29.80 "HgN/A
12:50 AM36 °FSunny.5 mph75%29.80 "Hg10 mi
11:50 PM
Nov 25
34 °FPassing clouds.2 mph81%29.80 "HgN/A
10:50 PM36 °FPassing clouds.3 mph75%29.80 "HgN/A
9:50 PM32 °FPassing clouds.1 mph87%29.80 "HgN/A
Weather by CustomWeather, © 2014

See weather overviewHow to use our weather pages